#timestamp,LO_Frequency,Hit,StdDev 
1510034415.8,286046997.7,N
1510034435.7,286046997.2,N
1510034455.5,286046995.7,N
1510034475.4,286046994.8,N
1510034495.2,286046994.3,N
1510034515.0,286046993.5,N
1510034515.9,286046993.5,N
1510034535.8,286046994.3,N
1510034555.6,286046995.7,N
1510034575.5,286046996.1,N
1510034595.3,286046992.9,N
1510034615.1,286046991.9,N
1510034635.9,286046993.5,N
1510034655.7,286046995.5,N
1510034675.5,286046990.6,N
1510034695.4,286046989.0,Y
1510034715.2,286046993.7,P
1510034735.1,286046994.0,P
1510034736.0,286046994.0,P
1510034755.8,286046994.9,Y
1510034775.6,286047005.8,P
1510034795.5,286047009.6,N
1510034815.3,286047008.3,N
1510034835.2,286047004.6,N
1510034855.9,286047008.7,N
1510034875.7,286047010.8,N
1510034895.6,286047010.5,N
1510034915.4,286047011.6,N
1510034935.2,286047008.4,N
1510034955.1,286047012.2,N
1510034956.0,286047012.2,N
1510034975.8,286047007.4,N
1510034995.6,286047005.7,N
1510035015.5,286047001.7,N
1510035035.3,286047006.4,N
1510035055.2,286047007.1,N
1510035075.9,286047005.7,N
1510035095.7,286047002.4,N
1510035115.6,286047002.4,N
1510035135.4,286047009.0,N
1510035155.2,286047015.2,Y
1510035175.1,286047006.4,P
1510035176.0,286047006.4,P
1510035195.8,286047008.9,P
1510035215.7,286047009.5,Y
1510035235.5,286047006.6,P
1510035255.3,286047006.7,P
1510035275.2,286047010.8,P
1510035295.0,286047010.6,Y
1510035295.9,286047010.6,P
1510035315.8,286047001.2,N
1510035335.6,286046999.6,N
1510035355.4,286047000.2,N
1510035375.3,286046998.8,N
1510035395.1,286047000.7,N
1510035415.8,286046997.5,N
1510035435.7,286046993.7,N
1510035455.5,286046993.4,N
1510035475.3,286046995.8,N
1510035495.2,286046995.1,N
1510035515.0,286046999.0,N
1510035515.9,286046999.0,N
1510035535.7,286046994.3,N
1510035555.6,286046994.2,N
1510035575.4,286046997.1,N
1510035595.3,286047001.0,N
1510035615.1,286047000.1,N
1510035616.0,286047000.1,N
1510035635.8,286046998.4,N
1510035655.7,286046996.9,N
1510035675.5,286046998.5,N
1510035695.3,286047004.1,N
1510035715.2,286047005.6,N
1510035735.9,286047008.4,N
1510035755.7,286047007.3,N
1510035775.6,286047004.3,N
1510035795.4,286047004.2,N
1510035815.2,286047001.5,N
1510035835.1,286047003.8,N
1510035836.0,286047003.8,N
1510035855.8,286047003.0,N
1510035875.7,286047003.7,N
1510035895.5,286047003.7,N
1510035915.3,286047003.5,N
1510035935.2,286047003.2,N
1510035955.9,286047006.9,N
1510035975.7,286047005.6,N
1510035995.6,286047004.1,N
1510036015.4,286047001.4,N
1510036035.2,286047005.5,N
1510036055.1,286047007.2,N
1510036056.0,286047007.2,N
1510036075.8,286047003.1,N
1510036095.7,286047002.2,N
1510036115.5,286047001.6,N
1510036135.3,286047003.2,N
1510036155.2,286047008.7,Y
1510036175.0,286047005.7,P
1510036175.9,286047005.7,P
1510036195.7,286047004.7,P
1510036215.6,286047004.7,Y
1510036235.4,286047001.2,P
1510036255.3,286046999.6,N
1510036275.1,286046996.9,N
1510036276.0,286046996.9,N
1510036295.8,286047002.7,N
1510036315.6,286046998.1,N
1510036335.5,286046998.3,N
1510036355.3,286047002.4,N
1510036375.2,286047001.9,N
1510036395.9,286047001.4,N
1510036415.7,286047004.3,N
1510036435.6,286046998.8,N
1510036455.4,286046999.6,N
1510036475.2,286046999.9,N
1510036495.1,286047003.7,N
1510036496.0,286047003.7,N
1510036515.8,286047002.3,N
1510036535.6,286047000.9,N
1510036555.5,286046998.5,N
1510036575.3,286047001.3,N
1510036595.1,286047001.7,N
1510036615.9,286047001.8,N
1510036635.7,286047002.6,N
1510036655.6,286047003.3,N
1510036675.4,286047005.3,N
1510036695.2,286047010.6,Y
1510036715.1,286047013.7,P
1510036716.0,286047013.7,N
1510036735.8,286047008.2,N
1510036755.7,286047004.0,N
1510036775.5,286047000.1,N
1510036795.3,286047000.6,N
1510036815.2,286046999.0,N
1510036835.9,286046996.9,N
1510036855.7,286046995.2,N
1510036875.6,286046995.0,N
1510036895.4,286046996.7,N
1510036915.2,286046995.6,N
1510036935.1,286046994.3,N
1510036936.0,286046994.3,N
1510036955.8,286046993.1,N
1510036975.6,286046998.0,N
1510036995.5,286046998.8,N
1510037015.3,286047002.1,N
1510037035.2,286047002.8,N
1510037055.9,286047000.8,N
1510037075.7,286047002.2,N
1510037095.6,286047002.7,N
1510037115.4,286047003.5,N
1510037135.2,286047002.3,N
1510037155.1,286046999.3,N
1510037156.0,286046999.3,N
1510037175.8,286046995.6,N
1510037195.6,286046998.2,N
1510037215.5,286047002.3,N
1510037235.3,286047004.3,N
1510037255.1,286047000.6,N
1510037275.9,286047000.4,N
1510037295.7,286046999.9,N
1510037315.6,286046999.3,N
1510037335.4,286046999.4,N
1510037355.2,286047002.6,N
1510037375.1,286047000.9,N
1510037376.0,286047000.9,N
1510037395.8,286046999.6,N
1510037415.6,286046996.9,N
1510037435.5,286047001.1,N
1510037455.3,286047000.3,N
1510037475.1,286046999.8,N
1510037495.9,286047001.8,N
1510037515.7,286047001.1,N
1510037535.6,286046996.6,N
1510037555.4,286046996.8,N
1510037575.2,286046996.2,N
1510037595.1,286046995.9,N
1510037596.0,286046995.9,N
1510037615.8,286046997.5,N
1510037635.6,286046999.8,N
1510037655.5,286047002.3,N
1510037675.3,286047002.1,N
1510037695.1,286047001.7,N
1510037715.9,286047003.1,N
1510037735.7,286047007.4,Y
1510037755.6,286047010.7,P
1510037775.4,286047009.6,N
1510037795.2,286047013.9,N
1510037815.1,286047012.9,N
1510037816.0,286047012.9,N
1510037835.8,286047014.2,N
1510037855.7,286047014.1,Y
1510037875.5,286047004.7,P
1510037895.3,286047004.5,N
1510037915.2,286047009.0,P
1510037935.9,286047008.9,Y
1510037955.7,286047002.1,P
1510037975.6,286047002.5,N
1510037995.4,286046998.5,N
